Date,TemperatureHighF,TemperatureAvgF,TemperatureLowF,DewpointHighF,DewpointAvgF,DewpointLowF,HumidityHigh,HumidityAvg,HumidityLow,PressureMaxIn,PressureMinIn,WindSpeedMaxMPH,WindSpeedAvgMPH,GustSpeedMaxMPH,PrecipitationSumIn
2013-1-1,55,35,25,0,0,0,0,0,100,0.00,0.00,6,1,7,0.00
2013-1-2,59,37,26,0,0,0,0,0,100,0.00,0.00,7,1,8,0.00
2013-1-3,56,37,25,0,0,0,0,0,100,0.00,0.00,8,1,10,0.00
2013-1-4,64,45,36,0,0,0,0,0,100,0.00,0.00,7,2,7,0.00
2013-1-5,46,42,40,0,0,0,0,0,100,0.00,0.00,9,2,11,0.00
2013-1-6,46,42,38,0,0,0,0,0,100,0.00,0.00,9,3,11,0.00
2013-1-7,51,46,40,0,0,0,0,0,100,0.00,0.00,19,4,25,0.00
2013-1-8,53,46,41,0,0,0,0,0,100,0.00,0.00,13,4,16,0.00
2013-1-9,49,41,36,0,0,0,0,0,100,0.00,0.00,12,3,13,0.00
2013-1-10,41,36,30,0,0,0,0,0,100,0.00,0.00,5,1,6,0.00
2013-1-11,47,33,26,0,0,0,0,0,100,0.00,0.00,8,2,8,0.00
2013-1-12,54,32,24,0,0,0,0,0,100,0.00,0.00,8,1,11,0.00
2013-1-13,49,31,23,0,0,0,0,0,100,0.00,0.00,4,1,5,0.00
2013-1-14,42,34,29,0,0,0,0,0,100,0.00,0.00,6,1,7,0.00
2013-1-15,56,38,28,0,0,0,0,0,100,0.00,0.00,6,1,7,0.00
2013-1-16,56,36,27,0,0,0,0,0,100,0.00,0.00,5,1,6,0.00
2013-1-17,40,34,28,0,0,0,0,0,100,0.00,0.00,5,1,5,0.00
2013-1-18,42,35,32,0,0,0,0,0,100,0.00,0.00,6,2,7,0.00
2013-1-19,39,34,32,0,0,0,0,0,100,0.00,0.00,6,2,7,0.00
2013-1-20,51,36,30,0,0,0,0,0,100,0.00,0.00,6,1,7,0.00
2013-1-21,41,35,31,0,0,0,0,0,100,0.00,0.00,8,2,9,0.00
2013-1-22,46,36,30,0,0,0,0,0,100,0.00,0.00,4,1,5,0.00
2013-1-23,44,41,37,0,0,0,0,0,100,0.00,0.00,8,2,9,0.00
2013-1-24,51,43,37,0,0,0,0,0,100,0.00,0.00,6,2,9,0.00
2013-1-25,66,47,38,0,0,0,0,0,100,0.00,0.00,7,2,9,0.00
2013-1-26,48,42,39,0,0,0,0,0,100,0.00,0.00,11,3,14,0.00
2013-1-27,44,41,39,0,0,0,0,0,100,0.00,0.00,12,3,14,0.00
2013-1-28,42,40,38,0,0,0,0,0,100,0.00,0.00,7,2,8,0.00
2013-1-29,48,44,41,0,0,0,0,0,100,0.00,0.00,11,3,12,0.00
2013-1-30,48,46,44,0,0,0,0,0,100,0.00,0.00,7,2,9,0.00
2013-1-31,58,48,45,0,0,0,0,0,100,0.00,0.00,9,2,11,0.00
2013-2-1,62,47,41,0,0,0,0,0,100,0.00,0.00,8,2,10,0.00
2013-2-2,46,41,38,0,0,0,0,0,100,0.00,0.00,8,2,8,0.00
2013-2-3,52,43,38,0,0,0,0,0,100,0.00,0.00,7,2,8,0.00
2013-2-4,60,47,43,0,0,0,0,0,100,0.00,0.00,8,2,8,0.00
2013-2-5,58,46,42,0,0,0,0,0,100,0.00,0.00,13,3,16,0.00
2013-2-6,57,46,42,0,0,0,0,0,100,0.00,0.00,12,3,13,0.00
2013-2-7,63,46,36,0,0,0,0,0,100,0.00,0.00,14,3,19,0.00
2013-2-8,54,42,34,0,0,0,0,0,100,0.00,0.00,6,1,7,0.00
2013-2-9,51,43,40,0,0,0,0,0,100,0.00,0.00,5,1,5,0.00
2013-2-10,60,43,34,0,0,0,0,0,100,0.00,0.00,6,2,8,0.00
2013-2-11,51,44,39,0,0,0,0,0,100,0.00,0.00,6,1,8,0.00
2013-2-12,52,47,44,0,0,0,0,0,100,0.00,0.00,15,3,18,0.00
2013-2-13,51,47,44,0,0,0,0,0,100,0.00,0.00,11,2,13,0.00
2013-2-14,57,46,42,0,0,0,0,0,100,0.00,0.00,6,2,8,0.00
2013-2-15,66,48,38,0,0,0,0,0,100,0.00,0.00,8,2,10,0.00
2013-2-16,64,47,37,0,0,0,0,0,100,0.00,0.00,14,3,18,0.00
2013-2-17,61,43,39,0,0,0,0,0,100,0.00,0.00,7,2,8,0.00
2013-2-18,58,43,38,0,0,0,0,0,100,0.00,0.00,7,2,8,0.00
2013-2-19,63,45,33,0,0,0,0,0,100,0.00,0.00,11,2,13,0.00
2013-2-20,49,40,32,0,0,0,0,0,100,0.00,0.00,9,2,11,0.00
2013-2-21,47,42,39,0,0,0,0,0,100,0.00,0.00,14,4,18,0.00
2013-2-22,51,42,37,0,0,0,0,0,100,0.00,0.00,17,5,24,0.00
2013-2-23,64,44,38,0,0,0,0,0,100,0.00,0.00,9,3,12,0.00
2013-2-24,53,45,40,0,0,0,0,0,100,0.00,0.00,13,4,14,0.00
2013-2-25,62,45,36,0,0,0,0,0,100,0.00,0.00,16,5,21,0.00
2013-2-26,55,44,37,0,0,0,0,0,100,0.00,0.00,10,3,13,0.00
2013-2-27,60,45,37,0,0,0,0,0,100,0.00,0.00,9,2,10,0.00
2013-2-28,53,47,42,0,0,0,0,0,100,0.00,0.00,11,2,16,0.00
2013-3-1,65,54,50,0,0,0,0,0,100,0.00,0.00,12,3,17,0.00
2013-3-2,63,50,38,0,0,0,0,0,100,0.00,0.00,12,4,15,0.00
2013-3-3,65,44,33,0,0,0,0,0,100,0.00,0.00,8,2,8,0.00
2013-3-4,64,44,29,0,0,0,0,0,100,0.00,0.00,11,2,13,0.00
2013-3-5,54,44,36,0,0,0,0,0,100,0.00,0.00,8,1,10,0.00
2013-3-6,45,42,40,0,0,0,0,0,100,0.00,0.00,10,2,12,0.00
2013-3-7,65,47,39,0,0,0,0,0,100,0.00,0.00,10,2,11,0.00
2013-3-8,64,46,34,0,0,0,0,0,100,0.00,0.00,10,2,12,0.00
2013-3-9,71,46,31,0,0,0,0,0,100,0.00,0.00,8,1,8,0.00
2013-3-10,52,43,36,0,0,0,0,0,100,0.00,0.00,6,2,7,0.00
2013-3-11,59,48,41,0,0,0,0,0,100,0.00,0.00,8,1,8,0.00
2013-3-12,59,52,47,0,0,0,0,0,100,0.00,0.00,13,4,16,0.00
2013-3-13,53,51,49,0,0,0,0,0,100,0.00,0.00,11,3,14,0.00
2013-3-14,56,51,47,0,0,0,0,0,100,0.00,0.00,10,3,11,0.00
2013-3-15,70,53,47,0,0,0,0,0,100,0.00,0.00,11,3,12,0.00
2013-3-16,59,47,38,0,0,0,0,0,100,0.00,0.00,15,4,22,0.00
2013-3-17,62,45,35,0,0,0,0,0,100,0.00,0.00,11,3,14,0.00
2013-3-18,67,46,37,0,0,0,0,0,100,0.00,0.00,13,4,16,0.00
2013-3-19,65,44,36,0,0,0,0,0,100,0.00,0.00,10,2,12,0.00
2013-3-20,60,47,38,0,0,0,0,0,100,0.00,0.00,18,5,22,0.00
2013-3-21,57,42,34,0,0,0,0,0,100,0.00,0.00,14,3,17,0.00
2013-3-22,62,42,31,0,0,0,0,0,100,0.00,0.00,8,2,10,0.00
2013-3-23,64,44,33,0,0,0,0,0,100,0.00,0.00,7,2,9,0.00
2013-3-24,64,43,29,0,0,0,0,0,100,0.00,0.00,7,1,8,0.00
2013-3-25,70,52,33,0,0,0,0,0,100,0.00,0.00,8,2,9,0.00
2013-3-26,72,54,45,0,0,0,0,0,100,0.00,0.00,7,2,8,0.00
2013-3-27,64,51,42,0,0,0,0,0,100,0.00,0.00,6,1,8,0.00
2013-3-28,75,54,41,0,0,0,0,0,100,0.00,0.00,6,1,7,0.00
2013-3-29,77,57,42,0,0,0,0,0,100,0.00,0.00,7,2,9,0.00
2013-3-30,73,56,42,0,0,0,0,0,100,0.00,0.00,11,3,13,0.00
2013-3-31,78,59,41,0,0,0,0,0,100,0.00,0.00,11,2,14,0.00
2013-4-1,73,55,46,0,0,0,0,0,100,0.00,0.00,11,2,12,0.00
2013-4-2,63,54,48,0,0,0,0,0,100,0.00,0.00,7,2,8,0.00
2013-4-3,76,57,43,0,0,0,0,0,100,0.00,0.00,7,2,8,0.00
2013-4-4,57,52,49,0,0,0,0,0,100,0.00,0.00,8,2,11,0.00
2013-4-5,63,53,47,0,0,0,0,0,100,0.00,0.00,13,4,17,0.00
2013-4-6,61,49,44,0,0,0,0,0,100,0.00,0.00,12,4,16,0.00
2013-4-7,50,44,39,0,0,0,0,0,100,0.00,0.00,9,3,11,0.00
2013-4-8,71,51,41,0,0,0,0,0,100,0.00,0.00,7,2,8,0.00
2013-4-9,63,50,40,0,0,0,0,0,100,0.00,0.00,8,2,10,0.00
2013-4-10,72,55,47,0,0,0,0,0,100,0.00,0.00,13,4,15,0.00
2013-4-11,69,49,44,0,0,0,0,0,100,0.00,0.00,8,3,10,0.00
2013-4-12,50,44,40,0,0,0,0,0,100,0.00,0.00,15,3,22,0.00
2013-4-13,56,44,37,0,0,0,0,0,100,0.00,0.00,14,3,18,0.00
2013-4-14,68,49,37,0,0,0,0,0,100,0.00,0.00,9,2,11,0.00
2013-4-15,67,49,38,0,0,0,0,0,100,0.00,0.00,18,2,19,0.00
2013-4-16,69,48,34,0,0,0,0,0,100,0.00,0.00,16,2,22,0.00
2013-4-17,72,52,38,0,0,0,0,0,100,0.00,0.00,8,2,11,0.00
2013-4-18,59,48,44,0,0,0,0,0,100,0.00,0.00,11,3,13,0.00
2013-4-19,59,51,47,0,0,0,0,0,100,0.00,0.00,10,3,13,0.00
2013-4-20,66,52,46,0,0,0,0,0,100,0.00,0.00,9,3,11,0.00
2013-4-21,67,49,44,0,0,0,0,0,100,0.00,0.00,11,4,15,0.00
2013-4-22,67,52,36,0,0,0,0,0,100,0.00,0.00,12,4,14,0.00
2013-4-23,73,53,34,0,0,0,0,0,100,0.00,0.00,12,2,15,0.00
2013-4-24,79,59,38,0,0,0,0,0,100,0.00,0.00,9,2,10,0.00
2013-4-25,85,63,41,0,0,0,0,0,100,0.00,0.00,8,2,9,0.00
2013-4-26,80,60,45,0,0,0,0,0,100,0.00,0.00,8,2,8,0.00
2013-4-27,61,54,52,0,0,0,0,0,100,0.00,0.00,14,4,18,0.00
2013-4-28,71,54,47,0,0,0,0,0,100,0.00,0.00,14,3,17,0.00
2013-4-29,72,51,41,0,0,0,0,0,100,0.00,0.00,14,4,14,0.00
2013-4-30,70,51,38,0,0,0,0,0,100,0.00,0.00,8,3,11,0.00
2013-5-1,73,55,35,0,0,0,0,0,100,0.00,0.00,9,3,12,0.00
2013-5-2,76,59,42,0,0,0,0,0,100,0.00,0.00,12,3,15,0.00
2013-5-3,80,62,46,0,0,0,0,0,100,0.00,0.00,17,4,19,0.00
2013-5-4,85,68,50,0,0,0,0,0,100,0.00,0.00,14,4,20,0.00
2013-5-5,90,71,51,0,0,0,0,0,100,0.00,0.00,10,3,11,0.00
2013-5-6,97,73,49,0,0,0,0,0,100,0.00,0.00,8,2,10,0.00
2013-5-7,85,64,52,0,0,0,0,0,100,0.00,0.00,8,2,12,0.00
2013-5-8,79,60,51,0,0,0,0,0,100,0.00,0.00,12,2,14,0.00
2013-5-9,80,61,47,0,0,0,0,0,100,0.00,0.00,7,2,9,0.00
2013-5-10,88,67,46,0,0,0,0,0,100,0.00,0.00,7,2,9,0.00
2013-5-11,94,71,54,0,0,0,0,0,100,0.00,0.00,6,2,8,0.00
2013-5-12,84,65,57,0,0,0,0,0,100,0.00,0.00,9,3,12,0.00
2013-5-13,77,59,48,0,0,0,0,0,100,0.00,0.00,17,4,21,0.00
2013-5-14,79,59,45,0,0,0,0,0,100,0.00,0.00,9,2,10,0.00
2013-5-15,77,57,45,0,0,0,0,0,100,0.00,0.00,10,2,10,0.00
2013-5-16,81,65,52,0,0,0,0,0,100,0.00,0.00,8,3,11,0.00
2013-5-17,73,60,52,0,0,0,0,0,100,0.00,0.00,9,3,11,0.00
2013-5-18,78,60,50,0,0,0,0,0,100,0.00,0.00,9,2,10,0.00
2013-5-19,75,60,53,0,0,0,0,0,100,0.00,0.00,10,3,11,0.00
2013-5-20,82,60,45,0,0,0,0,0,100,0.00,0.00,9,2,10,0.00
2013-5-21,69,52,45,0,0,0,0,0,100,0.00,0.00,10,3,10,0.00
2013-5-22,64,49,44,0,0,0,0,0,100,0.00,0.00,10,3,11,0.00
2013-5-23,69,51,43,0,0,0,0,0,100,0.00,0.00,10,2,12,0.00
2013-5-24,74,57,46,0,0,0,0,0,100,0.00,0.00,8,2,10,0.00
2013-5-25,76,59,50,0,0,0,0,0,100,0.00,0.00,7,2,8,0.00
2013-5-26,75,58,49,0,0,0,0,0,100,0.00,0.00,8,2,10,0.00
2013-5-27,64,56,50,0,0,0,0,0,100,0.00,0.00,8,2,10,0.00
2013-5-28,74,59,50,0,0,0,0,0,100,0.00,0.00,10,3,12,0.00
2013-5-29,71,56,48,0,0,0,0,0,100,0.00,0.00,13,2,17,0.00
2013-5-30,72,58,48,0,0,0,0,0,100,0.00,0.00,11,4,14,0.00
2013-5-31,78,62,49,0,0,0,0,0,100,0.00,0.00,8,2,10,0.00
2013-6-1,86,65,52,0,0,0,0,0,100,0.00,0.00,10,3,10,0.00
2013-6-2,79,65,53,0,0,0,0,0,100,0.00,0.00,10,3,12,0.00
2013-6-3,84,65,51,0,0,0,0,0,100,0.00,0.00,7,2,9,0.00
2013-6-4,86,69,52,0,0,0,0,0,100,0.00,0.00,10,3,11,0.00
2013-6-5,87,70,53,0,0,0,0,0,100,0.00,0.00,9,3,10,0.00
2013-6-6,90,71,51,0,0,0,0,0,100,0.00,0.00,9,3,12,0.00
2013-6-7,76,64,56,0,0,0,0,0,100,0.00,0.00,11,3,13,0.00
2013-6-8,78,64,54,0,0,0,0,0,100,0.00,0.00,11,4,12,0.00
2013-6-9,80,62,53,0,0,0,0,0,100,0.00,0.00,9,4,10,0.00
2013-6-10,82,65,49,0,0,0,0,0,100,0.00,0.00,8,3,9,0.00
2013-6-11,79,62,50,0,0,0,0,0,100,0.00,0.00,12,4,16,0.00
2013-6-12,82,64,51,0,0,0,0,0,100,0.00,0.00,11,3,14,0.00
2013-6-13,80,64,52,0,0,0,0,0,100,0.00,0.00,8,2,10,0.00
2013-6-14,81,64,54,0,0,0,0,0,100,0.00,0.00,9,3,10,0.00
2013-6-15,83,66,50,0,0,0,0,0,100,0.00,0.00,9,3,12,0.00
2013-6-16,87,69,54,0,0,0,0,0,100,0.00,0.00,9,2,10,0.00
2013-6-17,89,70,56,0,0,0,0,0,100,0.00,0.00,14,3,17,0.00
2013-6-18,89,69,54,0,0,0,0,0,100,0.00,0.00,10,3,12,0.00
2013-6-19,80,62,53,0,0,0,0,0,100,0.00,0.00,8,2,10,0.00
2013-6-20,66,58,52,0,0,0,0,0,100,0.00,0.00,8,3,10,0.00
2013-6-21,80,64,53,0,0,0,0,0,100,0.00,0.00,7,2,7,0.00
2013-6-22,90,71,52,0,0,0,0,0,100,0.00,0.00,8,2,9,0.00
2013-6-23,77,66,58,0,0,0,0,0,100,0.00,0.00,6,2,7,0.00
2013-6-24,80,65,55,0,0,0,0,0,100,0.00,0.00,12,3,17,0.00
2013-6-25,85,65,56,0,0,0,0,0,100,0.00,0.00,13,2,18,0.00
2013-6-26,83,66,56,0,0,0,0,0,100,0.00,0.00,9,2,10,0.00
2013-6-27,75,65,58,0,0,0,0,0,100,0.00,0.00,5,1,5,0.00
2013-6-28,97,76,59,0,0,0,0,0,100,0.00,0.00,8,2,10,0.00
2013-6-29,95,77,62,0,0,0,0,0,100,0.00,0.00,7,2,9,0.00
2013-6-30,98,79,60,0,0,0,0,0,100,0.00,0.00,9,3,11,0.00
2013-7-1,98,81,64,0,0,0,0,0,100,0.00,0.00,8,2,8,0.00
2013-7-2,90,75,59,0,0,0,0,0,100,0.00,0.00,13,2,16,0.00
2013-7-3,88,73,60,0,0,0,0,0,100,0.00,0.00,10,4,12,0.00
2013-7-4,87,67,59,0,0,0,0,0,100,0.00,0.00,8,2,8,0.00
2013-7-5,88,70,55,0,0,0,0,0,100,0.00,0.00,7,2,9,0.00
2013-7-6,88,71,54,0,0,0,0,0,100,0.00,0.00,9,2,11,0.00
2013-7-7,90,70,56,0,0,0,0,0,100,0.00,0.00,6,2,8,0.00
2013-7-8,91,71,56,0,0,0,0,0,100,0.00,0.00,7,2,9,0.00
2013-7-9,91,74,56,0,0,0,0,0,100,0.00,0.00,10,3,12,0.00
2013-7-10,85,68,57,0,0,0,0,0,100,0.00,0.00,9,3,10,0.00
2013-7-11,86,65,56,0,0,0,0,0,100,0.00,0.00,10,4,11,0.00
2013-7-12,79,63,54,0,0,0,0,0,100,0.00,0.00,8,2,9,0.00
2013-7-13,84,68,48,0,0,0,0,0,100,0.00,0.00,10,3,12,0.00
2013-7-14,95,72,50,0,0,0,0,0,100,0.00,0.00,10,3,13,0.00
2013-7-15,87,73,57,0,0,0,0,0,100,0.00,0.00,11,5,14,0.00
2013-7-16,93,76,62,0,0,0,0,0,100,0.00,0.00,10,4,12,0.00
2013-7-17,84,69,58,0,0,0,0,0,100,0.00,0.00,10,3,12,0.00
2013-7-18,88,70,55,0,0,0,0,0,100,0.00,0.00,7,2,9,0.00
2013-7-19,90,71,56,0,0,0,0,0,100,0.00,0.00,7,3,9,0.00
2013-7-20,86,68,54,0,0,0,0,0,100,0.00,0.00,7,2,7,0.00
2013-7-21,89,69,55,0,0,0,0,0,100,0.00,0.00,6,2,7,0.00
2013-7-22,89,70,56,0,0,0,0,0,100,0.00,0.00,10,2,11,0.00
2013-7-23,91,72,54,0,0,0,0,0,100,0.00,0.00,9,3,11,0.00
2013-7-24,94,75,55,0,0,0,0,0,100,0.00,0.00,8,3,10,0.00
2013-7-25,95,74,54,0,0,0,0,0,100,0.00,0.00,8,3,8,0.00
2013-7-26,95,75,56,0,0,0,0,0,100,0.00,0.00,12,3,14,0.00
2013-7-27,89,71,54,0,0,0,0,0,100,0.00,0.00,9,2,10,0.00
2013-7-28,80,64,53,0,0,0,0,0,100,0.00,0.00,9,3,12,0.00
2013-7-29,88,69,54,0,0,0,0,0,100,0.00,0.00,7,2,9,0.00
2013-7-30,90,70,55,0,0,0,0,0,100,0.00,0.00,7,2,8,0.00
2013-7-31,82,65,56,0,0,0,0,0,100,0.00,0.00,7,2,8,0.00
2013-8-1,75,64,56,0,0,0,0,0,100,0.00,0.00,8,3,10,0.00
2013-8-2,64,61,58,0,0,0,0,0,100,0.00,0.00,6,2,9,0.00
2013-8-3,87,68,58,0,0,0,0,0,100,0.00,0.00,7,2,9,0.00
2013-8-4,87,71,55,0,0,0,0,0,100,0.00,0.00,10,3,12,0.00
2013-8-5,97,75,58,0,0,0,0,0,100,0.00,0.00,8,2,9,0.00
2013-8-6,97,74,54,0,0,0,0,0,100,0.00,0.00,7,2,9,0.00
2013-8-7,95,74,54,0,0,0,0,0,100,0.00,0.00,8,2,10,0.00
2013-8-8,94,72,57,0,0,0,0,0,100,0.00,0.00,7,2,9,0.00
2013-8-9,92,73,56,0,0,0,0,0,100,0.00,0.00,8,2,9,0.00
2013-8-10,91,70,59,0,0,0,0,0,100,0.00,0.00,8,2,10,0.00
2013-8-11,89,70,56,0,0,0,0,0,100,0.00,0.00,7,3,8,0.00
2013-8-12,90,71,57,0,0,0,0,0,100,0.00,0.00,7,2,10,0.00
2013-8-13,92,72,55,0,0,0,0,0,100,0.00,0.00,8,2,9,0.00
2013-8-14,94,70,55,0,0,0,0,0,100,0.00,0.00,7,2,8,0.00
2013-8-15,77,67,60,0,0,0,0,0,100,0.00,0.00,5,1,7,0.00
2013-8-16,96,75,59,0,0,0,0,0,100,0.00,0.00,6,2,7,0.00
2013-8-17,92,73,60,0,0,0,0,0,100,0.00,0.00,8,3,10,0.00
2013-8-18,91,72,58,0,0,0,0,0,100,0.00,0.00,9,3,10,0.00
2013-8-19,91,71,57,0,0,0,0,0,100,0.00,0.00,10,3,12,0.00
2013-8-20,85,68,59,0,0,0,0,0,100,0.00,0.00,9,4,12,0.00
2013-8-21,86,70,55,0,0,0,0,0,100,0.00,0.00,10,4,14,0.00
2013-8-22,92,74,56,0,0,0,0,0,100,0.00,0.00,8,2,10,0.00
2013-8-23,87,70,61,0,0,0,0,0,100,0.00,0.00,10,3,11,0.00
2013-8-24,93,70,59,0,0,0,0,0,100,0.00,0.00,7,2,8,0.00
2013-8-25,84,67,56,0,0,0,0,0,100,0.00,0.00,7,2,7,0.00
2013-8-26,88,68,60,0,0,0,0,0,100,0.00,0.00,10,2,12,0.00
2013-8-27,92,72,61,0,0,0,0,0,100,0.00,0.00,8,2,10,0.00
2013-8-28,92,73,58,0,0,0,0,0,100,0.00,0.00,6,1,7,0.00
2013-8-29,85,68,63,0,0,0,0,0,100,0.00,0.00,9,2,10,0.00
2013-8-30,92,72,60,0,0,0,0,0,100,0.00,0.00,8,3,10,0.00
2013-8-31,85,69,54,0,0,0,0,0,100,0.00,0.00,10,2,12,0.00
2013-9-1,95,73,56,0,0,0,0,0,100,0.00,0.00,7,2,8,0.00
2013-9-2,96,74,58,0,0,0,0,0,100,0.00,0.00,7,2,8,0.00
2013-9-3,87,68,60,0,0,0,0,0,100,0.00,0.00,7,2,8,0.00
2013-9-4,82,66,58,0,0,0,0,0,100,0.00,0.00,8,2,10,0.00
2013-9-5,77,63,58,0,0,0,0,0,100,0.00,0.00,11,2,12,0.00
2013-9-6,86,66,60,0,0,0,0,0,100,0.00,0.00,9,2,12,0.00
2013-9-7,84,67,59,0,0,0,0,0,100,0.00,0.00,6,2,8,0.00
2013-9-8,92,70,55,0,0,0,0,0,100,0.00,0.00,6,2,7,0.00
2013-9-9,86,67,56,0,0,0,0,0,100,0.00,0.00,8,2,9,0.00
2013-9-10,84,68,55,0,0,0,0,0,100,0.00,0.00,10,3,12,0.00
2013-9-11,98,76,57,0,0,0,0,0,100,0.00,0.00,8,2,10,0.00
2013-9-12,92,70,58,0,0,0,0,0,100,0.00,0.00,7,1,8,0.00
2013-9-13,72,64,58,0,0,0,0,0,100,0.00,0.00,5,1,6,0.00
2013-9-14,81,65,58,0,0,0,0,0,100,0.00,0.00,7,2,8,0.00
2013-9-15,74,62,56,0,0,0,0,0,100,0.00,0.00,8,2,10,0.00
2013-9-16,81,64,58,0,0,0,0,0,100,0.00,0.00,12,3,12,0.00
2013-9-17,70,61,57,0,0,0,0,0,100,0.00,0.00,7,2,8,0.00
2013-9-18,84,68,52,0,0,0,0,0,100,0.00,0.00,8,2,9,0.00
2013-9-19,89,65,47,0,0,0,0,0,100,0.00,0.00,7,1,7,0.00
2013-9-20,90,65,53,0,0,0,0,0,100,0.00,0.00,9,2,12,0.00
2013-9-21,82,65,54,0,0,0,0,0,100,0.00,0.00,7,2,9,0.00
2013-11-19,47,43,38,0,0,0,0,0,100,0.00,0.00,13,5,15,0.00
2013-11-20,54,40,31,0,0,0,0,0,100,0.00,0.00,11,4,13,0.00
2013-11-21,55,38,28,0,0,0,0,0,100,0.00,0.00,9,3,10,0.00
2013-11-22,55,38,28,0,0,0,0,0,100,0.00,0.00,8,3,10,0.00
2013-11-23,60,40,28,0,0,0,0,0,100,0.00,0.00,6,1,8,0.00
2013-11-24,61,40,28,0,0,0,0,0,100,0.00,0.00,5,1,6,0.00
2013-11-25,66,42,32,0,0,0,0,0,100,0.00,0.00,3,1,4,0.00
2013-11-26,66,45,33,0,0,0,0,0,100,0.00,0.00,5,1,6,0.00
2013-11-27,67,47,36,0,0,0,0,0,100,0.00,0.00,6,1,7,0.00
2013-11-28,52,39,34,0,0,0,0,0,100,0.00,0.00,4,1,5,0.00
2013-11-29,48,44,36,0,0,0,0,0,100,0.00,0.00,5,1,6,0.00
2013-11-30,52,48,43,0,0,0,0,0,100,0.00,0.00,11,3,16,0.00
2013-12-1,54,51,44,0,0,0,0,0,100,0.00,0.00,18,5,27,0.00
2013-12-2,57,41,34,0,0,0,0,0,100,0.00,0.00,10,2,10,0.00
2013-12-3,50,37,26,0,0,0,0,0,100,0.00,0.00,15,5,19,0.00
2013-12-4,54,32,22,0,0,0,0,0,100,0.00,0.00,5,1,6,0.00
2013-12-5,25,22,20,0,0,0,0,0,100,0.00,0.00,2,0,3,0.00